Simultaneous Nadir Overpasses (SNOs) Predictions

Prediction of SNOs between GOES-15 and METOP-A Satellite Orbit:

Table of predicted SNOs for the next 14.0 days since TLE Epoch: 7/28/2017
Index Date Time (GOES-15) GOES-15 Lat,Lon METOP-A Lat,Lon Distance(km) Time Diff (sec)
1 07/29/2017 18:13:30 -0.07,-134.82 -0.74,-131.75 349.50 80
2 07/31/2017 06:35:09 0.03,-134.69 -0.32,-136.34 187.47 80
3 08/01/2017 06:11:49 0.05,-134.65 0.77,-131.34 376.44 80
4 08/02/2017 18:33:19 -0.02,-134.65 0.25,-135.90 142.82 80
5 08/03/2017 18:10:00 -0.04,-134.60 -0.89,-130.91 420.69 80
6 08/05/2017 06:31:38 0.01,-134.46 -0.22,-135.49 117.34 80
7 08/06/2017 06:08:19 0.03,-134.41 0.93,-130.50 445.70 80
8 08/07/2017 18:29:48 0.00,-134.40 0.16,-135.05 74.80 80
9 08/08/2017 18:06:28 -0.03,-134.34 -0.99,-130.06 487.97 80
10 08/10/2017 06:28:07 -0.01,-134.20 -0.11,-134.64 50.92 80




NCC Satellite Simultaneous Nadir Overpasses (SNOs) Prediction Service
